WetterOnline ( https://www.wetteronline.de )

Wetter aktuell Gießen

Aktuelles Wetter: Gießen (195m)

6-stündlich | Neueste Meldungen
Ortszeit Temperatur Wetter
So, 07.03. 1:00 -3.2° C leicht bewölkt
Sa, 06.03. 19:00 3.5° C wolkenlos
Sa, 06.03. 13:00 4.5° C wolkenlos
Sa, 06.03. 7:00 -4.8° C wolkenlos
Sa, 06.03. 1:00 -3.2° C wolkenlos
Fr, 05.03. 19:00 2.6° C wolkenlos
Fr, 05.03. 13:00 4.1° C bewölkt
Fr, 05.03. 7:00 2.1° C bewölkt
Ortszeit Temperatur Wetter
So, 07.03. 5:00 -4.8° C wolkenlos
So, 07.03. 4:50 -4.8° C wolkenlos
So, 07.03. 4:40 -4.7° C wolkenlos
So, 07.03. 4:30 -4.6° C wolkenlos
So, 07.03. 4:20 -4.6° C wolkenlos
So, 07.03. 4:10 -4.5° C wolkenlos
So, 07.03. 4:00 -4.0° C fast wolkenlos
So, 07.03. 3:30 -3.9° C wolkig
So, 07.03. 3:00 -4.6° C fast wolkenlos
So, 07.03. 2:30 -3.9° C leicht bewölkt
So, 07.03. 2:00 -3.5° C leicht bewölkt
So, 07.03. 1:30 -3.5° C fast wolkenlos
Ortszeit Relative Feuchte Sichtweite
So, 07.03. 1:00 82% 29 km
Sa, 06.03. 19:00 48% 55 km
Sa, 06.03. 13:00 48% 30 km
Sa, 06.03. 7:00 89% 35 km
Sa, 06.03. 1:00 84% 30 km
Fr, 05.03. 19:00 50% 50 km
Fr, 05.03. 13:00 57% 55 km
Fr, 05.03. 7:00 85% 23 km
Ortszeit Relative Feuchte Sichtweite
So, 07.03. 5:00 91% 16 km
So, 07.03. 4:50 91% -
So, 07.03. 4:40 91% -
So, 07.03. 4:30 91% 20 km
So, 07.03. 4:20 91% -
So, 07.03. 4:10 88% -
So, 07.03. 4:00 87% 23 km
So, 07.03. 3:30 87% 30 km
So, 07.03. 3:00 86% 30 km
So, 07.03. 2:30 87% 29 km
So, 07.03. 2:00 85% 28 km
So, 07.03. 1:30 85% 24 km
Ortszeit Niederschlagsmenge Niederschlagsart
So, 07.03. 1:00 0.0 l/m2 in 6 Std. -
Sa, 06.03. 19:00 0.0 l/m2 in 12 Std. -
Sa, 06.03. 13:00 0.0 l/m2 in 6 Std. -
Sa, 06.03. 7:00 0.0 l/m2 in 12 Std. -
Sa, 06.03. 1:00 0.0 l/m2 in 6 Std. -
Fr, 05.03. 19:00 0.0 l/m2 in 12 Std. -
Fr, 05.03. 13:00 0.0 l/m2 in 6 Std. -
Fr, 05.03. 7:00 4 l/m2 in 12 Std. Regen
Ortszeit Niederschlagsmenge Niederschlagsart
So, 07.03. 5:00 0.0 l/m2 in 1 Std. -
So, 07.03. 4:50 keine Meldung -
So, 07.03. 4:40 keine Meldung -
So, 07.03. 4:30 0.0 l/m2 in 1 Std. -
So, 07.03. 4:20 keine Meldung -
So, 07.03. 4:10 keine Meldung -
So, 07.03. 4:00 0.0 l/m2 in 1 Std. -
So, 07.03. 3:30 0.0 l/m2 in 1 Std. -
So, 07.03. 3:00 0.0 l/m2 in 1 Std. -
So, 07.03. 2:30 0.0 l/m2 in 1 Std. -
So, 07.03. 2:00 0.0 l/m2 in 1 Std. -
So, 07.03. 1:30 0.0 l/m2 in 1 Std. -
Ortszeit Stärke Spitze Richtung
km/h Bft. km/h Grad Sektor
So, 07.03. 1:00 4 1 11 50° NO
Sa, 06.03. 19:00 9 2 20 10° N
Sa, 06.03. 13:00 11 2 18 20° N
Sa, 06.03. 7:00 4 1 7 80° O
Sa, 06.03. 1:00 2 1 13 20° N
Fr, 05.03. 19:00 7 2 32 10° N
Fr, 05.03. 13:00 17 3 41 360° N
Fr, 05.03. 7:00 18 3 29 360° N
Ortszeit Stärke Spitze Richtung
km/h Bft. km/h Grad Sektor
So, 07.03. 5:00 2 1 7 120° SO
So, 07.03. 4:50 2 1 - 120° SO
So, 07.03. 4:40 4 1 - 80° O
So, 07.03. 4:30 2 1 7 100° O
So, 07.03. 4:20 2 1 - 100° O
So, 07.03. 4:10 4 1 - 60° NO
So, 07.03. 4:00 7 2 11 50° NO
So, 07.03. 3:30 4 1 11 260° W
So, 07.03. 3:00 7 2 11 230° SW
So, 07.03. 2:30 4 1 7 40° NO
So, 07.03. 2:00 7 2 11 40° NO
So, 07.03. 1:30 9 2 9 30° NO
Ortszeit Untergrenze Bedeckung Gattung
total tief tief mittel hoch
So, 07.03. 1:00 9000 m 3/8 0/8 - - -
Sa, 06.03. 19:00 10500 m 0/8 0/8 - - -
Sa, 06.03. 13:00 - 0/8 0/8 - - -
Sa, 06.03. 7:00 - 0/8 0/8 - - -
Sa, 06.03. 1:00 - 0/8 0/8 - - -
Fr, 05.03. 19:00 - 0/8 0/8 - - -
Fr, 05.03. 13:00 1170 m 7/8 7/8 - - -
Fr, 05.03. 7:00 480 m 7/8 7/8 - - -
Ortszeit Bedeckungsgrad in Achtel und Wolkenuntergrenze
So, 07.03. 5:00 keine Wolken
So, 07.03. 4:50 keine Wolken
So, 07.03. 4:40 keine Wolken
So, 07.03. 4:30 keine Wolken
So, 07.03. 4:20 keine Wolken
So, 07.03. 4:10 keine Wolken
So, 07.03. 4:00 2(9000m)
So, 07.03. 3:30 7(9000m)
So, 07.03. 3:00 2(9000m)
So, 07.03. 2:30 6(9000m)
So, 07.03. 2:00 3(9000m)
So, 07.03. 1:30 2(9000m)
Ortszeit Luftdruck NN (hPa) Tendenz (hPa in 3 Std.)
So, 07.03. 1:00 1030 - 1,3
Sa, 06.03. 19:00 1031 - 0,8
Sa, 06.03. 13:00 1034 - 0,7
Sa, 06.03. 7:00 1035 + 0,6
Sa, 06.03. 1:00 1034 + 1,0
Fr, 05.03. 19:00 1031 + 1,9
Fr, 05.03. 13:00 1027 + 1,6
Fr, 05.03. 7:00 1023 + 1,8
Ortszeit Luftdruck NN (hPa) Tendenz (hPa in 3 Std.)
So, 07.03. 5:00 1028 - 1,2
So, 07.03. 4:50 1028 keine Meldung
So, 07.03. 4:40 1028 keine Meldung
So, 07.03. 4:30 1028 - 1,6
So, 07.03. 4:20 1028 keine Meldung
So, 07.03. 4:10 1028 keine Meldung
So, 07.03. 4:00 1028 - 1,8
So, 07.03. 3:30 1028 - 1,9
So, 07.03. 3:00 1029 - 1,8
So, 07.03. 2:30 1029 - 2,0
So, 07.03. 2:00 1029 - 2,1
So, 07.03. 1:30 1030 - 1,7
Ortszeit Schneehöhe (cm)
So, 07.03. 1:00 0
Sa, 06.03. 19:00 0
Sa, 06.03. 13:00 0
Sa, 06.03. 7:00 0
Sa, 06.03. 1:00 0
Fr, 05.03. 19:00 0
Fr, 05.03. 13:00 0
Fr, 05.03. 7:00 0
Ortszeit Schneehöhe (cm)
So, 07.03. 5:00 0
So, 07.03. 4:50 0
So, 07.03. 4:40 0
So, 07.03. 4:30 0
So, 07.03. 4:20 0
So, 07.03. 4:10 0
So, 07.03. 4:00 0
So, 07.03. 3:30 0
So, 07.03. 3:00 0
So, 07.03. 2:30 0
So, 07.03. 2:00 0
So, 07.03. 1:30 0
Link zu dieser Seite / Seite empfehlen

Das Wetter in ...